Theta_e
319 317 315 319 325 327 327 327 326 326 325 324 321 319 321 325 327 326 326 327 326 324 322 320 320 320 320 319 319 320 320 321 320 321 321 320 321 321 322 322 321 322 322 323 325 328 327 321 318 320 321 319 318 317 318 317 318 319 324 327 325 327 325 323 324 318 319 323 315 313 317 319 319 317 317 318 318 319 320 321 323 325 325 324 324 322 322 326
318 319 317 316 319 324 328 328 327 326 326 325 322 320 323 326 327 326 326 326 326 324 322 321 321 321 320 320 320 320 321 321 321 321 321 322 323 322 322 321 320 321 321 320 322 326 327 322 318 319 321 321 320 318 318 318 316 319 324 324 325 330 324 318 319 315 316 318 315 314 316 317 318 317 317 319 319 320 323 322 323 325 325 323 324 323 323 326
316 318 318 317 316 319 324 327 327 327 326 326 323 321 323 326 327 326 325 326 326 324 321 321 320 320 320 320 321 321 321 322 322 322 321 324 325 323 322 321 321 320 321 321 321 323 326 326 321 318 320 319 319 319 317 318 317 317 319 321 326 324 318 316 316 315 316 316 314 314 315 315 317 317 318 318 319 321 323 323 324 324 323 323 325 323 322 325
314 316 318 318 317 315 318 324 327 327 326 326 324 322 322 326 327 326 325 325 325 323 320 319 320 320 320 320 321 321 322 323 324 322 321 324 326 325 323 322 320 319 321 321 322 323 325 327 323 319 320 317 315 317 317 317 318 316 317 321 322 316 316 319 316 316 315 314 314 314 315 315 316 317 317 317 320 321 320 320 322 322 320 321 325 324 321 325
313 315 317 318 318 316 315 319 325 327 327 326 325 323 322 325 326 326 325 324 324 322 320 319 319 319 319 319 319 320 322 324 325 323 322 324 325 325 321 318 318 317 318 319 321 322 323 325 323 320 319 317 315 316 317 317 317 317 316 318 317 313 316 318 316 316 314 313 314 313 315 317 316 316 316 317 321 322 320 319 319 319 319 320 323 323 321 324
313 314 316 317 317 317 315 315 320 325 327 327 325 323 322 324 326 325 324 324 324 322 320 319 318 318 318 318 319 320 322 325 325 323 324 323 325 326 321 318 317 315 315 317 318 319 321 321 321 318 316 317 317 319 318 315 316 317 316 315 315 315 315 316 315 315 314 314 314 314 315 316 316 316 316 317 319 320 319 320 319 318 319 318 320 323 321 322
314 314 314 316 317 318 316 315 316 320 325 327 326 325 322 323 326 325 324 323 323 322 321 320 319 318 318 320 321 321 323 324 322 323 325 324 325 326 322 321 318 315 314 315 316 317 319 319 318 316 316 318 317 317 316 313 314 316 317 316 316 317 316 316 315 314 315 314 314 315 315 315 316 317 315 315 318 318 318 319 319 319 319 319 319 321 320 320
313 313 314 314 315 317 317 317 315 316 322 326 326 325 323 322 325 326 324 322 322 322 322 321 320 320 321 322 323 323 323 324 323 322 325 325 326 326 323 322 319 316 314 315 315 316 317 318 318 316 318 320 316 314 313 312 314 314 316 314 314 317 316 315 314 315 314 314 314 314 314 315 316 315 313 315 318 317 317 318 318 319 319 319 319 319 320 320
310 312 314 314 315 315 317 318 316 314 318 324 326 325 323 322 324 326 325 322 320 321 321 320 321 321 322 323 323 324 324 324 324 323 324 326 326 326 325 322 318 314 314 315 315 316 317 318 318 318 320 318 316 317 313 313 314 312 312 312 313 315 315 314 313 314 314 314 314 314 315 314 314 314 313 315 317 316 316 317 318 319 319 319 319 319 319 319
308 311 313 314 314 314 315 317 317 315 315 321 326 326 324 323 323 325 325 323 319 319 320 320 321 321 323 323 323 324 324 323 324 323 324 325 326 326 326 324 319 315 316 316 315 317 317 317 318 318 320 317 316 317 314 314 315 311 311 312 313 315 315 315 313 312 313 313 313 316 316 313 313 314 315 316 316 316 316 316 317 318 319 319 319 319 318 319
306 309 312 314 314 314 314 315 317 317 314 316 323 326 325 324 323 324 325 325 321 318 319 320 321 322 322 323 323 323 323 323 324 323 323 324 326 326 326 326 322 318 318 317 315 316 317 319 319 319 320 319 317 317 314 314 313 311 312 314 314 314 315 315 313 312 312 313 313 314 314 312 312 313 315 316 315 316 316 315 316 317 318 318 319 319 319 319
306 307 310 313 314 314 314 314 315 316 315 314 319 324 325 325 324 324 325 325 323 319 317 320 322 322 322 323 322 322 323 323 323 324 324 324 325 326 326 326 325 323 321 321 317 314 316 318 319 320 320 320 319 318 316 314 313 312 312 317 318 316 317 315 313 312 312 313 313 313 314 314 313 314 315 314 314 315 315 315 315 317 318 318 319 320 320 319
305 306 308 311 313 314 313 314 314 316 316 314 316 322 325 325 325 324 325 325 324 321 318 321 323 322 322 323 322 322 323 324 324 324 324 324 324 325 326 326 326 325 324 324 320 314 315 316 317 319 319 319 318 318 318 313 312 314 314 317 319 318 320 315 312 313 312 313 313 312 316 319 316 314 314 314 314 314 315 316 315 316 317 318 319 320 320 320
305 305 306 308 312 313 313 313 314 315 316 315 315 320 324 325 325 324 324 325 325 322 319 321 324 323 323 324 324 323 324 324 324 325 325 324 324 324 326 325 325 325 325 326 323 317 316 315 316 316 316 318 317 317 320 318 317 320 317 316 317 318 320 316 310 311 312 313 313 312 315 319 317 314 314 314 314 314 315 316 315 316 316 318 320 320 319 319
304 305 305 306 309 312 313 313 314 314 315 315 313 317 322 324 325 324 324 325 324 322 320 322 324 323 323 324 324 325 324 323 323 324 324 325 325 325 324 322 321 321 321 323 324 321 317 315 315 315 315 316 315 318 326 328 326 325 322 321 319 316 320 319 311 309 313 313 311 312 315 317 315 313 313 313 313 314 316 316 316 316 316 317 319 319 319 318
304 304 305 305 306 309 312 312 313 314 315 315 313 315 320 323 325 325 324 325 324 322 322 323 324 323 323 323 323 324 323 323 323 323 324 324 325 324 320 318 317 317 317 319 322 322 318 315 315 314 314 315 317 321 326 327 326 324 322 323 320 314 317 318 312 309 311 313 311 312 315 318 316 312 312 313 312 314 316 317 316 317 317 317 317 317 318 318
305 304 304 305 305 307 309 311 313 314 315 315 314 314 317 322 325 325 324 324 324 323 323 323 324 323 323 322 322 322 322 322 323 322 323 323 322 320 317 316 315 315 317 317 320 320 317 315 315 314 315 317 318 320 323 323 324 323 319 318 318 315 314 315 315 311 309 311 312 312 313 316 317 312 311 312 311 313 316 316 316 317 316 316 317 317 317 317
306 305 305 305 305 306 307 310 312 313 314 315 315 314 314 319 325 325 324 325 324 323 323 322 323 323 323 321 320 322 322 323 322 322 323 322 319 317 316 316 315 314 316 316 317 316 315 313 314 316 316 317 317 317 322 323 323 323 319 316 316 315 313 313 315 313 311 312 313 313 312 314 315 312 311 312 311 312 314 315 315 316 316 316 316 316 317 317
306 306 306 305 306 306 306 308 311 313 314 314 316 315 312 317 325 325 325 325 323 322 323 322 322 323 323 321 320 322 323 323 322 321 322 321 318 317 318 317 315 314 315 315 315 314 314 314 315 316 316 316 316 317 320 321 321 322 319 316 315 316 314 313 315 313 312 313 314 314 313 313 313 312 312 312 311 311 312 312 312 314 316 316 317 316 316 316
306 307 306 306 306 306 306 307 309 312 314 313 315 315 312 317 325 325 323 324 323 323 322 322 321 321 321 321 321 322 322 323 321 319 321 321 318 318 318 316 314 314 315 316 315 314 314 315 316 317 316 315 315 317 317 317 317 317 316 316 314 314 314 313 315 314 311 312 314 313 313 314 314 313 313 311 311 310 309 310 311 311 313 315 317 316 316 316
306 306 306 306 306 306 306 307 308 311 313 313 314 315 313 318 325 324 323 323 323 323 321 322 322 320 320 321 321 322 321 321 320 318 320 320 318 317 315 314 313 314 315 315 315 314 314 316 317 316 317 315 314 316 316 314 315 315 317 318 315 313 312 311 312 313 311 311 314 314 312 314 315 314 311 309 310 311 309 310 311 311 312 313 315 316 315 315
306 306 306 306 306 306 307 307 307 310 313 313 314 314 313 318 324 323 323 323 322 322 320 321 321 320 321 321 321 322 321 320 319 318 319 320 318 317 314 312 312 313 314 314 314 314 315 316 317 315 315 315 314 315 315 315 315 316 318 318 316 314 312 311 311 313 312 311 314 315 311 312 315 314 310 308 309 312 311 312 313 312 312 311 313 315 315 314
304 306 306 306 306 306 307 307 308 309 311 312 314 315 313 316 322 323 323 323 321 320 319 321 320 319 321 321 321 322 321 320 319 318 318 319 318 317 314 311 311 313 313 314 315 315 316 316 315 313 314 315 314 313 314 315 316 316 317 316 315 314 313 313 313 313 312 311 314 315 313 315 316 314 311 309 309 311 312 313 313 312 312 312 313 314 314 314
303 304 305 306 306 306 306 307 308 309 310 312 313 315 313 315 320 322 321 320 320 318 319 320 320 320 321 321 322 321 321 321 319 318 318 319 318 315 313 311 311 312 313 314 314 314 315 314 312 312 314 315 314 313 314 315 316 316 315 314 314 314 313 312 312 313 312 312 313 314 315 317 318 315 313 311 309 309 311 311 311 312 312 313 314 313 314 314
303 303 304 305 305 306 305 306 307 308 310 311 313 314 314 315 320 321 319 320 320 318 319 320 319 320 321 321 322 321 321 320 320 319 318 319 317 314 313 312 311 312 312 313 314 314 313 312 312 313 314 315 314 314 314 315 316 316 314 313 312 313 312 311 313 313 313 314 315 314 315 317 320 318 314 313 312 310 310 309 310 312 312 312 313 313 314 314
302 303 303 304 305 305 306 307 307 307 309 311 312 314 314 315 318 320 320 322 321 318 319 320 319 320 321 322 321 321 322 321 320 319 318 318 317 314 313 312 311 312 312 311 312 314 313 311 313 313 314 315 315 315 314 314 315 315 315 313 312 312 313 314 314 312 315 318 316 312 314 318 321 320 317 315 314 314 311 309 309 311 312 312 313 314 314 315
302 303 303 304 305 305 307 308 307 308 310 311 312 313 314 315 317 319 320 323 322 319 319 320 319 321 321 321 321 322 324 322 319 318 317 317 315 313 313 312 311 311 310 310 312 313 311 310 313 314 313 314 314 314 314 313 314 315 317 315 313 313 313 315 314 314 318 319 316 313 314 316 316 317 317 314 313 315 313 311 309 309 311 313 313 314 315 315
302 303 303 304 305 306 307 307 307 309 310 310 312 313 314 316 318 319 320 324 322 318 319 319 318 320 320 321 321 321 322 321 319 318 316 315 313 312 313 312 312 311 309 311 313 312 310 311 313 313 313 313 313 314 314 312 313 316 318 316 314 315 315 315 315 316 317 316 317 317 314 314 317 321 319 313 313 316 315 314 312 309 310 313 313 315 315 315
303 303 303 304 305 307 307 307 309 309 307 308 312 314 315 316 318 319 320 324 320 316 318 319 318 319 319 321 321 319 319 320 319 317 315 314 313 311 312 312 311 311 310 310 313 313 309 310 312 312 313 312 313 314 314 313 313 315 317 317 317 319 318 317 318 317 314 314 316 318 315 313 319 327 322 313 313 317 318 317 313 309 310 313 313 315 315 315
303 303 304 305 306 307 307 308 308 308 307 309 312 314 315 315 317 320 322 322 319 316 318 318 317 319 320 321 320 318 319 318 316 315 314 314 313 311 311 312 311 312 311 310 314 314 310 309 310 311 312 312 311 311 311 312 312 313 317 316 315 319 319 318 321 319 314 314 316 320 319 313 316 324 320 314 317 319 318 317 314 310 310 313 313 314 315 315
303 304 304 306 307 308 308 309 308 308 310 310 313 314 315 315 317 320 322 319 317 317 316 317 318 319 321 320 320 319 318 315 313 314 314 314 314 312 311 313 313 314 313 312 313 313 311 310 310 310 310 311 311 311 310 311 312 314 317 317 315 317 316 316 320 318 315 317 318 321 320 312 313 320 318 317 320 319 316 316 318 314 310 312 313 314 314 314
304 304 305 306 308 309 309 308 306 308 310 311 314 314 314 316 317 320 320 317 318 317 316 317 319 320 320 320 320 319 317 315 313 314 315 315 314 312 312 313 313 315 314 312 313 313 313 314 312 310 310 310 311 312 312 312 313 315 316 316 316 318 317 316 318 317 317 317 315 316 315 312 313 315 317 317 317 315 311 310 314 313 310 312 314 313 314 314
305 305 306 307 309 310 309 306 306 309 311 312 315 314 314 316 318 320 318 315 317 316 314 318 319 319 320 320 319 318 317 316 314 314 315 314 314 313 313 314 314 316 316 314 314 314 314 315 313 312 311 310 311 312 312 312 313 313 314 315 317 317 317 317 316 317 319 318 314 311 312 315 316 315 318 317 314 313 310 307 309 310 310 313 313 313 313 314
307 306 307 309 311 310 307 306 308 310 312 313 315 315 315 316 317 318 316 313 315 314 315 318 319 319 320 320 319 317 317 317 315 315 315 314 314 313 313 314 313 316 317 314 314 314 315 315 313 313 312 311 311 312 312 315 313 312 314 316 316 318 319 318 317 318 320 319 314 311 313 319 320 318 318 313 310 312 311 310 311 310 312 313 313 313 313 314
310 310 311 312 312 310 307 307 309 311 313 314 314 315 316 316 316 317 315 312 313 314 315 317 319 321 321 319 318 316 317 317 316 316 315 314 314 313 312 313 312 313 314 314 314 314 315 315 313 311 310 311 312 311 312 315 314 313 315 315 315 318 320 318 318 319 320 318 314 313 316 321 319 316 313 309 309 311 309 309 310 310 312 312 312 314 313 314
314 314 314 314 313 311 309 309 310 312 313 313 314 316 316 315 316 315 314 312 313 314 315 317 319 321 320 318 317 316 316 316 316 316 315 315 314 314 313 313 312 312 313 314 315 314 314 315 313 311 310 311 312 312 311 313 314 314 314 314 314 316 316 316 314 313 314 316 316 315 316 319 317 315 314 313 313 314 311 310 308 309 312 312 312 314 313 314
315 315 314 313 312 311 310 309 311 313 314 313 314 316 316 315 315 313 313 313 313 314 317 319 319 320 319 317 317 317 317 317 316 316 316 315 315 314 314 313 312 311 313 314 314 315 315 314 313 313 313 310 308 311 311 311 313 315 314 314 314 315 317 320 317 312 312 315 318 317 315 317 316 317 320 318 314 315 315 313 309 308 310 311 312 315 314 315
316 315 314 313 312 311 310 310 312 314 314 314 314 316 316 316 313 313 313 314 314 315 317 319 319 318 318 317 317 316 318 319 317 317 316 315 316 315 313 313 312 311 311 312 313 315 316 315 312 312 314 311 308 311 313 310 310 312 313 314 315 316 316 318 317 315 313 314 317 318 315 316 317 317 320 318 314 316 315 313 313 311 310 311 313 315 314 314
315 314 313 313 312 311 311 311 313 314 314 314 315 315 316 315 313 313 313 313 313 315 317 319 319 317 316 317 317 316 318 319 317 317 317 316 317 315 312 314 313 311 310 311 314 315 315 317 315 311 312 312 311 312 314 313 310 309 311 312 314 315 316 317 317 316 316 315 316 317 314 315 317 316 318 317 315 318 315 316 318 313 310 312 314 314 314 314
313 313 313 313 312 312 311 312 313 314 314 315 315 315 317 315 313 313 313 313 313 314 317 318 317 317 315 316 316 317 319 318 317 318 318 316 316 313 312 313 313 312 310 310 314 315 313 317 317 312 311 312 314 314 314 314 312 311 313 313 312 312 315 319 317 316 319 320 319 317 313 317 319 315 315 315 315 316 316 320 321 314 311 313 313 313 313 314
312 312 313 313 312 312 313 314 314 314 315 315 315 316 316 314 312 313 313 313 314 314 315 316 316 316 315 315 316 316 318 318 317 318 317 316 315 313 313 313 312 312 310 310 314 314 313 316 317 314 313 313 314 314 314 315 314 313 314 313 313 313 315 317 315 316 317 318 320 317 313 318 319 312 312 315 315 314 313 315 316 312 311 313 313 313 313 314
312 312 313 313 313 313 314 314 315 315 315 315 315 314 314 313 312 313 313 313 314 314 314 315 316 316 315 316 315 315 317 317 317 318 317 316 316 314 313 312 311 310 310 313 314 313 315 318 317 315 315 315 314 310 307 311 314 314 314 314 314 313 314 315 316 318 316 314 318 317 314 316 315 312 313 314 314 313 310 309 309 310 311 312 313 313 313 313
312 313 313 313 312 313 315 315 315 315 314 314 313 313 313 312 312 313 313 314 315 314 314 315 315 314 315 315 314 314 315 316 317 317 315 314 314 313 311 311 311 311 311 314 314 312 315 318 318 316 314 316 317 313 308 309 313 314 314 315 314 314 319 322 319 320 318 314 315 314 313 314 313 314 312 309 310 310 309 308 308 309 311 312 313 313 312 312
312 313 313 313 313 313 315 316 316 314 312 312 313 312 312 311 312 313 313 314 314 314 315 315 315 314 314 314 315 314 315 316 316 315 314 313 311 310 309 310 311 311 311 313 313 314 317 317 316 316 316 317 320 317 314 312 313 315 316 315 315 316 319 319 315 315 315 317 317 315 314 316 318 317 311 308 310 311 308 308 308 310 312 313 313 312 311 311
312 312 312 313 313 313 314 315 315 313 312 311 311 311 311 311 311 312 313 314 314 314 315 315 315 314 314 314 315 314 315 316 315 313 314 313 310 308 308 310 311 312 312 312 311 314 321 320 315 316 317 316 317 316 315 314 313 314 315 314 314 316 316 313 314 313 313 317 317 314 315 317 318 316 311 311 314 312 309 308 309 311 313 312 312 311 311 311
313 312 310 312 312 312 313 313 312 311 311 311 311 310 310 311 311 311 313 314 312 313 315 315 314 314 313 313 314 314 314 314 314 313 313 313 313 309 308 310 312 311 311 312 311 314 321 319 314 316 316 314 316 318 317 316 314 313 315 316 315 316 314 314 316 314 314 316 315 314 316 315 313 313 314 314 314 315 314 310 309 311 312 312 312 311 311 311
313 311 310 311 312 313 313 312 311 311 311 312 312 310 310 311 311 311 312 313 311 311 313 314 314 314 313 313 314 313 313 313 313 313 312 313 315 311 308 309 312 311 311 311 311 316 321 317 314 317 315 314 321 322 318 316 315 314 315 316 315 315 314 315 315 314 316 316 313 314 317 316 314 315 316 316 316 317 315 309 308 311 311 311 312 311 312 311
312 312 310 312 313 313 313 312 311 312 312 312 312 310 310 311 311 311 312 312 311 311 312 312 314 314 313 313 314 313 313 313 313 313 312 313 314 311 309 310 311 311 312 312 311 314 317 315 314 316 314 315 320 321 317 316 315 314 314 314 314 314 314 314 314 314 315 314 314 317 318 316 316 317 317 316 315 314 312 309 309 311 310 311 312 311 312 312
310 311 310 310 312 313 313 311 311 312 313 314 312 310 310 311 311 311 312 311 311 311 312 312 313 313 313 313 314 314 313 313 313 313 312 312 313 311 310 311 310 310 311 313 313 313 314 316 315 315 313 313 316 317 316 316 315 314 314 314 313 314 313 313 313 313 314 313 315 318 317 315 316 317 317 314 309 308 309 309 309 311 311 311 311 311 312 312
309 311 310 310 312 313 313 311 311 312 313 314 313 311 311 311 311 311 311 312 311 311 312 312 312 313 313 313 314 314 313 313 314 313 312 312 312 311 311 312 311 310 310 312 312 310 313 316 315 313 313 312 312 313 313 314 315 315 314 314 313 313 313 313 312 313 313 313 313 315 314 314 314 312 312 309 306 308 309 309 310 311 311 311 311 312 312 313
309 310 310 311 311 312 313 312 311 312 313 313 313 312 311 311 311 312 312 311 311 312 312 312 312 312 312 313 314 314 313 313 313 312 311 312 311 310 312 312 311 310 311 312 312 311 314 314 311 312 315 311 310 312 312 312 313 314 314 314 313 313 313 312 312 312 312 312 313 313 313 313 313 312 310 307 307 308 308 309 310 311 311 312 312 313 313 313
308 310 310 311 311 312 313 312 312 312 313 313 312 312 312 311 311 312 312 310 311 312 312 312 312 312 312 313 313 313 312 312 312 311 310 311 311 310 310 310 309 310 311 312 314 314 316 314 312 314 316 311 309 311 314 314 314 313 314 313 312 312 313 312 313 313 312 312 313 312 313 314 314 314 313 312 311 310 308 309 311 312 312 312 312 313 313 313
Wind_Speed
28 30 33 34 36 39 39 39 38 38 36 33 33 33 34 32 31 30 30 31 31 33 34 34 32 31 30 29 29 28 27 27 28 29 32 30 26 26 23 20 21 20 19 18 19 22 21 15 13 16 16 11 5 5 6 5 4 3 2 2 3 4 4 5 7 7 3 2 4 11 18 14 8 13 15 11 10 13 16 14 13 21 18 10 9 8 22 30
29 27 28 34 36 36 38 40 39 39 38 35 34 35 35 34 32 31 31 31 31 32 34 34 33 32 31 30 30 28 25 23 23 26 29 30 25 23 22 21 23 22 21 20 19 22 22 19 13 12 13 11 8 5 4 4 5 2 2 2 4 5 4 5 7 9 4 1 5 12 17 16 13 17 17 9 8 12 12 10 12 18 18 14 10 13 26 31
30 28 26 31 34 35 36 39 40 40 40 38 35 36 36 35 34 32 32 32 32 32 32 31 31 30 28 27 26 24 22 21 23 28 28 26 24 23 22 21 22 22 22 22 21 22 22 22 17 13 12 8 7 7 4 3 4 3 2 1 5 6 4 5 7 8 7 5 3 8 13 13 13 17 18 10 8 9 10 13 14 17 20 18 14 18 29 32
28 29 28 28 30 35 36 36 40 41 41 40 37 37 38 37 35 33 33 33 33 33 32 31 30 29 28 27 24 22 20 17 22 31 30 28 25 23 22 21 20 21 22 21 21 22 22 23 20 15 13 8 5 5 4 4 4 2 4 4 4 4 3 7 9 8 7 6 4 7 9 10 12 15 16 12 7 4 14 24 24 24 25 22 19 23 30 33
27 28 29 29 29 32 35 35 38 41 41 42 40 38 40 39 37 35 33 34 35 35 35 34 33 31 29 28 25 24 19 8 14 29 31 30 28 23 21 21 19 18 18 15 16 20 21 21 21 16 10 6 5 3 4 6 5 2 3 6 4 3 3 7 8 7 7 4 4 8 8 10 13 13 17 17 10 11 23 31 30 28 27 24 23 26 31 34
27 27 28 29 29 29 32 34 35 37 40 44 42 39 40 40 38 36 34 35 35 35 36 36 35 32 29 28 27 26 22 6 4 16 28 31 30 26 23 22 19 19 17 13 14 18 19 19 20 16 9 5 4 4 3 5 5 3 4 5 7 6 5 9 6 5 7 4 6 8 9 13 14 10 18 22 20 22 25 28 29 26 25 24 23 26 31 34
25 27 27 27 29 28 29 34 36 35 36 41 44 40 40 42 39 38 36 35 35 35 35 35 33 32 29 28 28 27 29 18 2 1 21 32 31 27 26 24 21 22 22 18 18 19 20 24 23 17 11 5 2 4 0 6 6 5 3 3 8 11 11 15 13 9 8 7 9 7 7 14 17 10 11 23 30 25 17 20 26 24 22 22 23 26 29 32
25 26 26 27 29 28 28 31 34 35 33 37 43 43 40 42 41 39 38 35 35 35 34 34 32 31 31 30 29 26 28 31 16 4 13 31 32 29 29 26 22 23 25 23 21 21 21 26 26 18 9 3 4 4 4 5 2 2 3 5 6 8 10 14 17 16 12 10 10 7 9 15 19 12 7 22 32 24 13 15 22 23 23 24 25 26 27 31
26 25 26 26 27 29 29 29 31 35 35 33 40 45 41 43 44 41 40 37 36 36 34 33 32 31 30 31 30 22 24 34 28 11 9 27 34 32 31 28 25 25 25 23 24 26 23 25 29 21 11 6 7 4 5 3 1 4 6 9 8 7 9 10 12 13 11 10 9 8 10 12 15 10 8 22 28 23 16 13 19 24 24 26 26 26 28 31
27 26 26 26 26 27 29 30 30 32 36 33 35 44 44 42 45 44 41 39 37 36 36 34 32 31 30 33 27 15 21 31 30 16 9 22 32 31 32 31 30 30 25 21 23 29 28 25 26 21 12 9 8 3 3 4 0 9 10 9 6 6 8 7 10 12 9 8 10 11 9 9 10 6 8 18 20 22 21 16 19 25 26 27 28 28 28 30
28 27 26 26 26 27 27 29 30 28 33 36 33 40 47 44 44 46 42 40 39 37 37 35 33 33 32 34 25 13 19 26 28 24 12 16 28 31 32 32 32 33 29 23 20 24 27 26 26 20 8 7 8 2 2 2 2 10 10 7 5 4 6 7 9 12 8 5 10 12 6 5 5 4 13 17 12 19 25 21 22 26 28 29 29 29 29 31
29 28 27 27 26 26 27 27 30 28 29 36 34 35 46 48 45 46 45 41 41 38 37 36 34 35 34 33 29 22 20 22 25 28 19 14 22 29 29 28 30 32 32 28 21 20 21 21 26 21 7 9 10 2 4 5 3 7 6 4 5 5 5 8 8 8 5 3 7 8 3 4 3 9 20 17 11 18 23 23 25 27 30 29 30 31 30 31
29 29 28 28 27 26 27 26 28 29 28 33 36 34 41 50 47 46 47 42 41 39 37 37 36 36 33 27 28 28 22 21 23 26 24 16 18 26 27 25 26 27 29 28 23 22 20 17 22 20 11 12 11 5 4 3 3 3 2 2 3 4 4 8 8 6 5 3 5 8 3 6 6 18 23 13 12 19 22 25 26 27 30 31 32 32 32 31
29 30 29 28 28 27 27 27 27 28 28 29 37 36 35 48 50 45 47 44 42 40 37 37 37 38 35 22 24 31 24 21 23 24 25 20 19 24 25 22 21 21 24 25 24 25 21 18 20 17 11 11 11 8 4 2 2 2 1 2 1 2 4 5 5 7 6 4 6 8 4 6 7 19 21 14 15 20 23 26 27 28 30 33 34 34 33 33
29 30 31 29 29 28 27 28 26 26 28 27 36 40 33 42 52 47 47 46 42 41 39 39 40 37 28 18 21 29 26 23 23 24 24 21 22 25 23 21 19 17 19 21 23 25 21 20 20 14 9 9 10 8 2 3 2 1 2 3 3 4 4 5 3 10 7 4 8 7 3 6 8 15 17 16 18 20 25 27 27 30 31 33 34 35 35 33
29 30 31 31 29 29 28 28 27 26 27 26 32 41 35 37 50 50 46 47 43 42 42 41 44 37 19 10 18 26 27 27 25 24 24 22 23 26 26 24 20 16 15 16 21 25 24 20 16 12 10 7 6 5 3 1 2 1 4 5 4 3 2 4 3 9 8 2 6 7 3 4 7 11 10 15 23 23 24 25 28 31 31 32 34 35 37 35
28 30 32 32 31 30 30 29 28 27 26 26 29 38 39 37 50 52 46 47 43 44 48 44 46 38 14 8 19 29 32 29 27 25 26 26 25 28 30 26 21 17 15 17 21 26 25 20 13 8 7 4 3 5 3 5 6 3 2 2 3 2 3 3 3 5 7 2 4 6 5 6 8 8 6 9 21 24 24 27 29 30 30 31 32 35 37 37
29 30 32 33 32 31 31 29 30 29 26 28 27 34 41 39 50 54 47 48 45 44 43 39 41 25 10 18 26 32 37 33 29 28 29 31 29 30 32 28 25 21 20 20 19 23 20 14 10 5 3 4 4 7 7 6 5 6 5 4 4 4 5 6 4 4 8 4 4 6 6 11 13 13 13 10 13 22 26 27 27 28 30 31 33 36 37 38
30 32 33 34 34 33 32 31 30 30 27 28 26 29 37 39 51 56 53 53 44 32 23 30 40 15 6 27 31 30 38 37 31 29 32 36 32 30 28 26 27 24 20 14 11 17 15 7 6 5 6 8 9 11 9 3 5 8 6 4 5 6 7 5 4 4 7 5 6 8 6 10 13 14 18 16 11 19 24 21 20 24 29 31 33 36 37 38
32 34 35 35 35 35 34 32 31 30 29 28 28 25 27 32 33 34 48 58 52 39 26 39 52 23 7 25 30 28 34 36 34 32 34 38 36 29 22 22 24 19 12 8 8 14 14 7 7 9 9 12 12 10 6 3 6 8 5 2 3 5 6 4 4 4 5 5 7 10 9 10 14 14 16 15 10 14 18 18 21 25 28 31 34 36 37 38
34 35 37 37 37 36 35 34 31 32 31 29 31 26 27 32 17 17 42 49 56 53 30 39 56 32 13 26 35 36 34 30 33 35 33 37 39 28 20 21 17 9 7 10 9 10 11 8 8 6 6 9 9 7 6 4 5 5 4 2 2 4 4 6 7 5 1 4 6 6 8 10 14 14 12 9 8 12 18 21 25 29 30 31 34 36 37 37
37 37 38 39 39 37 36 35 32 32 32 31 34 32 38 41 21 28 45 27 40 49 26 33 45 27 17 24 35 42 36 25 27 35 35 39 39 26 20 19 12 7 8 10 8 6 7 7 7 7 7 9 8 7 7 5 4 3 3 2 2 2 2 7 8 5 1 3 5 4 6 9 12 15 12 8 10 14 21 23 27 31 29 29 33 36 38 37
40 41 40 40 40 39 37 37 32 32 35 35 37 37 46 47 25 33 43 15 21 33 22 31 32 23 25 27 35 42 35 23 23 32 37 39 36 26 22 16 10 10 10 10 9 8 6 6 9 12 11 11 8 8 9 5 4 3 3 3 3 1 0 4 4 3 1 2 2 2 4 5 8 12 11 12 17 18 22 24 25 27 27 29 33 35 37 37
41 43 44 42 41 41 38 36 33 35 38 39 41 40 47 48 31 29 31 9 6 15 20 36 32 30 33 30 38 41 32 26 26 32 39 40 31 22 20 15 12 10 10 11 11 9 3 4 14 14 10 12 10 9 10 8 6 4 5 4 2 1 3 4 3 5 4 2 0 1 3 5 6 11 10 10 14 17 22 23 23 26 28 31 33 34 36 36
43 44 46 44 43 42 38 35 37 40 40 41 44 41 44 45 32 30 25 4 3 10 17 31 28 29 34 32 37 39 31 27 30 39 42 43 36 21 15 15 13 9 11 12 9 6 2 7 16 12 8 13 12 11 12 10 6 5 7 6 4 4 5 6 6 5 3 4 2 1 5 6 4 8 10 7 6 10 17 18 23 29 29 30 33 35 37 37
45 45 46 45 43 41 37 36 41 44 41 46 47 40 44 49 36 32 23 1 3 9 14 24 22 25 32 33 38 37 24 16 28 42 41 41 40 27 16 12 8 8 12 10 5 3 3 9 15 10 9 11 10 10 11 11 7 5 6 8 7 7 5 7 7 3 2 5 3 1 5 7 5 5 8 6 5 9 11 11 19 29 29 30 33 36 38 38
45 47 47 45 43 41 39 40 44 43 44 49 47 41 44 48 42 31 16 4 6 9 15 21 20 27 32 35 43 29 11 15 25 34 40 38 35 27 17 11 7 8 11 8 4 3 5 11 12 10 11 9 9 9 9 12 8 3 7 11 10 7 6 8 5 4 4 3 4 1 3 5 5 6 5 2 4 8 10 9 13 23 28 31 36 38 40 41
47 49 49 48 46 44 45 47 43 44 52 51 45 46 45 41 38 29 11 6 6 9 11 13 17 31 35 38 43 20 14 30 22 21 41 38 26 20 13 10 10 9 12 10 5 3 7 12 13 13 12 8 9 8 10 13 7 3 8 10 8 7 7 7 4 5 3 2 5 4 3 3 6 6 4 1 3 8 10 11 11 19 29 34 38 42 43 44
49 52 52 51 48 46 51 52 46 49 55 51 45 47 48 41 31 17 5 5 4 6 11 15 16 27 33 32 28 17 22 28 14 18 38 32 21 14 8 12 13 10 12 11 5 3 5 14 20 16 10 9 10 8 11 14 7 4 8 6 4 4 2 3 4 4 1 2 8 6 3 5 5 5 3 1 3 7 9 9 10 18 29 35 38 42 43 45
52 54 56 52 47 49 53 53 54 53 50 50 48 45 45 37 18 6 8 5 2 2 11 17 16 23 29 22 13 15 18 12 14 26 26 21 20 11 9 16 13 8 8 7 7 4 0 11 19 13 9 10 11 9 11 14 10 7 7 5 3 2 2 1 1 3 2 6 8 7 4 4 5 5 5 4 5 7 8 8 8 15 25 31 35 39 41 43
54 59 60 53 50 53 54 55 60 54 46 48 46 42 38 22 5 6 9 5 3 4 9 13 16 22 26 16 9 15 14 7 18 26 15 12 13 6 9 14 9 6 6 6 7 2 4 6 8 6 9 10 8 6 8 11 11 7 5 5 3 1 1 0 1 1 5 7 4 4 3 3 6 5 4 6 7 7 8 8 8 11 18 24 26 28 32 35
58 65 64 56 54 58 59 62 63 55 48 48 45 41 26 8 4 5 4 6 5 6 8 12 16 20 22 18 12 15 14 9 16 20 14 12 9 7 10 10 8 8 7 8 5 1 2 2 2 3 9 12 10 6 5 6 7 6 5 6 5 3 3 3 3 3 5 5 2 2 2 3 7 6 7 10 9 8 10 13 15 14 16 20 17 15 15 17
62 67 63 58 58 63 66 67 64 57 51 50 47 34 13 6 8 4 4 5 4 5 9 13 18 23 24 19 13 14 13 12 17 17 15 13 8 8 6 5 10 8 5 9 7 4 4 4 3 5 5 11 13 9 6 5 6 7 7 7 6 4 5 6 4 2 4 4 2 1 1 3 4 4 10 13 13 18 19 19 21 19 19 20 16 11 10 9
61 66 62 60 63 69 70 67 63 58 54 53 41 19 9 12 8 4 5 4 2 7 10 13 20 24 22 16 14 16 10 9 18 18 15 13 9 7 6 7 13 7 4 8 6 8 8 4 5 7 3 9 12 9 9 7 5 8 5 4 5 5 5 6 4 3 4 3 2 0 1 4 3 3 9 12 15 22 23 19 18 20 23 22 19 17 16 14
54 60 60 61 67 73 72 68 64 60 59 49 24 7 10 14 6 4 6 4 4 8 10 13 19 19 15 11 14 15 5 6 17 15 13 15 12 12 12 11 14 10 7 8 5 5 9 5 3 2 3 9 11 8 9 9 6 5 3 3 5 6 4 2 3 4 3 2 2 2 3 3 3 6 9 8 11 16 19 19 18 23 26 23 24 26 24 21
48 55 59 64 71 72 70 69 65 63 62 39 11 8 12 9 5 4 6 7 9 13 14 13 14 15 10 7 11 12 4 8 17 12 9 13 11 14 14 10 13 14 10 9 6 4 7 3 1 3 3 5 9 8 9 10 7 2 4 6 4 4 5 2 1 1 3 3 4 2 4 5 3 8 10 5 6 9 12 14 15 20 21 19 22 27 28 27
52 56 59 64 69 69 69 70 66 65 57 28 8 10 10 7 7 7 7 12 15 18 18 13 10 11 10 6 8 12 10 10 14 11 9 11 9 14 14 9 13 17 14 9 4 3 6 3 1 2 4 2 4 6 5 6 6 4 6 7 2 2 2 2 1 1 1 5 4 1 5 5 3 6 7 5 7 10 9 8 10 15 15 16 21 24 26 27
56 57 57 63 67 67 70 70 67 64 43 15 9 12 10 8 10 9 9 12 16 17 15 11 7 6 9 10 10 15 16 13 12 11 11 10 8 15 19 13 15 20 16 9 3 2 6 5 1 1 4 2 1 4 4 3 2 4 5 6 4 3 4 2 3 4 4 5 4 2 3 5 5 6 4 5 9 12 10 7 6 9 12 17 21 21 21 21
58 49 42 59 69 67 71 70 67 56 25 6 11 12 9 9 9 15 19 15 13 14 11 9 8 5 8 13 14 17 18 16 15 12 10 9 6 13 21 14 11 19 17 9 4 3 4 5 1 1 2 2 1 4 9 7 1 2 2 4 3 3 4 4 3 3 4 4 3 2 3 5 7 7 5 8 10 10 9 7 6 10 15 19 21 20 19 18
54 30 24 58 71 65 72 70 56 35 10 6 13 10 8 9 9 20 31 25 12 9 9 8 9 10 9 12 15 16 14 15 18 13 9 12 6 7 18 15 8 15 16 7 3 4 2 2 3 1 0 3 3 5 9 10 6 3 4 6 4 2 2 2 2 2 3 4 3 2 5 7 5 6 9 11 12 10 9 7 6 10 15 16 16 17 16 15
46 15 18 60 70 67 73 54 27 13 6 11 14 9 11 12 11 20 33 33 18 6 6 10 12 13 13 13 13 11 11 13 16 11 6 12 10 4 16 22 14 14 14 5 3 6 2 2 5 4 2 4 2 3 3 7 8 7 6 7 7 5 3 4 6 2 2 3 4 3 7 9 4 6 9 11 11 11 10 9 8 12 15 14 11 9 8 10
34 7 24 62 69 73 63 24 7 10 9 13 13 9 10 12 15 20 26 30 20 6 4 8 11 12 11 14 14 12 12 12 15 14 6 12 15 6 14 27 23 20 17 8 4 4 3 4 5 3 4 5 2 2 1 1 2 4 4 5 6 6 5 6 7 3 1 3 2 2 7 8 4 9 10 10 12 15 13 12 11 14 13 10 6 5 5 7
20 11 40 66 70 76 49 8 10 15 6 9 13 11 12 12 15 20 20 21 15 10 9 6 8 10 5 7 12 13 12 10 13 15 6 8 12 7 14 29 27 20 14 6 4 5 4 5 5 2 1 2 4 3 3 3 2 2 4 3 5 6 5 5 5 4 3 4 2 1 7 6 3 6 8 9 16 19 14 10 10 12 10 6 5 6 6 5
19 26 48 62 71 71 35 5 14 14 5 11 13 13 13 10 15 21 19 16 11 10 12 8 10 12 5 4 10 13 13 9 9 10 4 3 6 9 22 34 30 19 13 11 10 9 5 4 5 4 2 2 3 4 3 2 3 4 3 3 4 4 7 3 2 3 3 7 7 6 8 5 2 2 3 6 9 12 15 12 9 8 8 8 8 7 6 4
18 21 34 52 68 59 26 12 15 11 10 14 10 13 13 7 15 24 23 18 13 12 14 13 15 14 9 9 10 11 11 5 6 8 4 3 2 5 22 35 31 20 15 15 16 12 5 3 5 7 7 7 7 5 6 6 4 2 2 4 4 6 8 5 2 2 8 8 10 11 9 2 3 2 2 6 6 7 14 16 11 10 12 12 9 8 6 4
12 8 13 30 48 41 25 21 17 9 13 14 8 10 13 9 11 20 23 18 12 14 14 14 18 15 12 15 12 10 9 0 3 8 5 6 4 2 18 34 31 22 17 19 23 14 3 2 5 7 10 11 9 5 4 9 7 6 6 8 8 8 10 7 4 8 10 4 8 14 7 2 2 2 5 7 7 7 10 11 12 15 16 13 9 7 5 3
9 6 6 12 21 20 17 16 12 8 12 14 9 7 12 15 11 12 17 12 8 13 10 10 17 16 15 20 14 12 12 2 5 9 8 6 4 3 15 26 24 24 20 20 24 15 3 4 9 10 14 11 5 4 7 11 12 13 12 12 11 10 10 9 12 14 6 5 9 9 8 6 6 5 8 8 7 7 8 11 14 15 13 10 7 6 4 2
7 7 14 20 16 10 13 13 10 11 14 14 12 11 15 18 15 13 14 8 7 13 8 7 17 19 20 24 16 13 16 7 4 10 9 5 4 5 9 10 14 25 23 16 18 13 4 9 11 11 14 9 3 6 10 11 10 12 14 15 13 12 13 17 24 18 8 8 12 6 11 12 8 6 9 9 9 10 11 13 14 13 12 10 8 6 4 2
7 7 11 18 13 11 17 16 12 13 15 13 11 14 18 20 19 16 12 8 10 13 11 12 18 21 23 24 17 14 17 13 10 12 12 12 11 10 9 6 8 18 18 12 11 7 6 9 9 11 14 6 2 6 10 10 8 9 14 17 16 17 19 24 27 19 12 17 13 5 7 9 6 7 10 8 10 10 8 10 12 13 12 10 8 6 3 3
11 13 13 9 4 10 19 18 15 15 14 12 10 13 18 21 22 18 14 14 16 14 14 18 22 23 24 25 20 18 23 23 20 19 17 17 14 12 12 9 6 7 8 8 7 4 5 7 6 8 9 2 1 3 5 7 8 10 13 15 16 20 24 26 23 15 14 20 13 3 7 9 5 7 8 6 5 5 5 10 13 12 9 6 6 5 5 7
16 24 30 19 5 9 16 13 14 14 11 11 10 12 17 22 24 20 14 16 19 20 20 24 28 24 22 25 24 21 27 29 24 24 24 22 19 16 10 6 8 10 7 6 5 2 2 3 3 7 7 4 1 4 4 4 5 5 9 14 20 23 23 20 14 12 16 17 11 9 13 8 4 6 8 5 4 5 10 14 15 11 8 7 9 10 10 12
18 23 32 24 9 10 14 12 13 14 12 12 11 13 17 21 23 22 13 10 15 21 23 24 25 20 17 24 27 27 33 33 27 28 32 29 24 19 15 14 18 17 11 5 3 3 5 5 3 6 7 3 1 6 7 7 5 4 11 18 24 22 15 10 10 16 19 12 9 12 11 4 7 9 9 7 5 8 14 19 20 18 14 14 15 15 16 16
Wind_Direction
240 243 239 227 213 211 215 218 217 214 215 214 211 212 212 214 214 211 209 208 207 205 203 203 205 208 209 212 216 219 221 225 229 230 232 235 237 234 229 228 229 228 225 223 223 222 207 187 196 205 206 210 223 243 253 244 199 185 142 125 193 183 201 188 181 194 168 226 220 191 185 180 199 204 194 189 195 187 177 188 194 195 208 216 215 200 179 178
240 243 243 237 227 215 209 213 218 216 214 214 211 210 212 214 215 212 208 207 207 206 206 207 209 211 214 216 219 222 223 226 231 230 232 229 226 227 222 219 222 224 218 212 214 215 204 192 196 198 198 215 232 239 263 237 194 182 127 151 219 196 207 202 187 191 187 245 204 202 194 190 206 192 180 187 195 181 177 200 200 200 209 209 206 186 177 179
241 242 243 242 237 228 216 208 212 217 215 213 212 209 210 214 215 214 208 205 207 206 206 207 208 209 211 213 215 218 220 222 223 225 227 217 211 214 213 214 218 222 219 214 212 213 212 207 201 187 177 186 218 226 260 247 207 209 157 209 240 213 235 235 213 209 227 256 209 208 205 208 219 190 180 192 188 186 194 196 195 200 204 199 189 178 179 180
242 241 240 243 240 236 230 212 205 213 216 214 211 209 210 212 215 215 209 204 205 206 205 206 206 206 208 210 213 216 216 222 228 231 227 212 208 212 212 212 212 217 220 218 216 219 221 213 203 190 175 165 182 215 248 244 226 209 165 207 240 201 233 244 237 254 258 257 238 196 194 221 221 189 186 182 161 232 223 206 204 205 199 191 184 179 183 184
240 242 239 239 241 238 237 225 210 207 213 215 212 209 209 210 215 215 210 206 204 205 205 206 208 210 212 213 217 219 211 218 244 237 227 214 212 209 202 203 199 200 210 211 208 213 217 209 201 189 172 168 162 178 240 246 233 222 220 232 243 173 228 259 245 264 272 260 224 179 178 212 204 195 198 184 176 222 224 214 211 211 203 195 189 183 185 187
238 240 240 238 239 240 239 235 226 211 207 213 213 210 209 209 213 215 211 207 204 204 205 206 209 212 215 216 219 217 205 199 294 231 219 213 213 206 198 201 191 183 190 186 182 199 202 190 186 177 156 153 160 165 215 279 258 229 271 257 244 231 256 278 259 262 274 243 205 192 198 200 187 209 211 197 207 220 225 220 214 214 209 202 196 188 189 191
238 238 240 239 237 240 239 238 238 224 206 209 213 210 209 209 211 215 212 207 205 205 204 206 208 211 213 213 215 211 206 212 296 222 204 205 207 200 196 201 191 182 187 179 173 187 187 178 179 170 154 148 164 167 165 316 283 226 255 275 248 243 256 273 270 268 276 257 241 224 205 196 190 208 215 210 219 224 234 228 216 213 207 202 199 196 197 198
237 238 238 239 237 236 238 238 239 233 213 205 211 211 209 208 210 213 212 206 205 205 204 205 205 207 208 206 203 201 206 214 228 288 196 196 200 196 195 200 191 184 189 192 191 190 184 181 181 172 160 151 153 148 45 354 301 211 249 305 291 257 265 286 280 265 264 263 253 223 211 210 202 201 213 221 223 222 231 229 216 209 203 203 203 202 203 203
237 238 236 238 240 235 237 238 238 236 224 207 206 211 210 208 209 211 211 207 203 204 203 202 202 201 204 203 196 199 213 214 219 241 204 193 196 196 198 198 192 188 190 200 209 205 193 183 182 180 177 156 150 142 50 78 91 350 300 300 309 289 290 314 303 270 259 255 231 204 226 229 213 213 246 236 229 222 222 224 213 206 205 206 206 206 208 207
239 237 236 238 239 236 236 236 237 239 231 215 202 207 210 208 209 211 211 209 205 203 202 201 201 198 200 199 194 203 218 214 216 219 198 195 196 194 198 199 196 195 194 196 204 206 200 192 187 183 174 159 154 135 56 123 3 333 308 284 281 293 290 303 311 288 269 253 220 206 228 231 207 204 247 243 233 223 219 217 211 206 208 210 209 209 211 212
242 238 234 236 238 237 236 236 238 240 236 226 207 204 209 208 209 211 211 211 208 204 202 202 201 199 198 196 195 204 213 213 214 210 193 192 199 197 196 199 200 200 201 197 194 198 202 207 200 183 163 166 161 126 309 191 352 332 312 279 259 312 297 273 296 288 267 263 230 212 223 230 184 193 236 237 227 218 216 214 211 208 211 213 213 212 212 215
246 241 235 234 237 237 235 236 236 238 238 232 220 206 207 210 210 210 211 211 209 205 201 202 201 200 197 197 204 211 213 213 212 209 202 192 199 201 199 200 203 204 205 203 194 185 191 206 203 189 169 162 152 101 251 225 351 344 322 284 277 344 318 251 265 272 243 273 237 199 236 264 194 228 236 235 224 212 211 213 213 211 212 214 215 214 215 217
248 245 241 235 235 236 235 235 233 235 237 234 227 213 206 208 209 209 209 209 208 205 200 199 199 199 196 199 209 212 212 210 206 206 204 198 196 199 200 199 202 206 207 206 197 189 192 200 198 187 164 157 151 129 175 204 356 14 6 316 306 342 309 241 231 229 203 246 216 164 225 266 230 236 234 231 224 209 207 212 212 212 213 214 215 216 218 218
248 248 245 238 236 235 235 235 233 234 237 235 226 220 211 206 207 209 208 208 206 202 199 198 197 197 197 201 206 205 205 204 203 203 202 197 188 189 192 192 194 201 207 209 204 200 201 198 192 179 153 155 157 144 123 28 1 66 30 337 283 235 280 264 197 173 174 221 198 159 231 261 244 243 233 223 224 212 209 211 211 214 214 215 216 217 220 221
246 249 247 243 238 235 235 234 234 234 237 237 226 222 217 205 205 207 207 207 204 200 197 196 197 193 193 202 201 200 201 201 202 203 203 196 186 182 176 176 179 183 192 200 203 200 194 189 188 174 144 146 153 150 94 5 349 77 185 228 221 214 272 302 202 175 181 208 185 163 235 256 261 258 239 223 223 216 214 212 212 215 215 216 218 219 222 224
244 246 247 246 242 237 237 233 232 235 234 234 227 222 221 210 204 205 207 205 200 196 192 188 191 190 187 199 197 195 193 195 199 198 196 193 187 175 163 163 165 165 173 184 196 194 188 185 183 169 150 144 149 136 81 359 262 247 192 206 215 210 248 298 263 197 189 156 187 192 220 250 265 266 246 222 220 216 213 214 214 215 216 218 219 222 224 225
244 243 246 247 244 239 237 234 230 232 231 229 229 223 224 216 203 202 205 203 197 193 193 189 188 190 193 185 184 190 187 187 193 190 185 182 178 168 161 161 158 154 155 162 178 180 177 176 167 162 155 144 147 129 143 215 225 212 162 195 218 206 198 231 278 212 180 146 215 208 213 235 250 266 266 225 217 212 209 215 217 216 217 219 222 224 225 226
244 242 243 243 245 240 235 235 228 228 230 227 232 226 225 221 203 198 197 194 192 191 195 193 186 188 206 195 187 189 188 184 184 184 181 175 172 169 164 163 159 151 142 142 160 167 168 170 158 156 155 149 161 168 195 216 203 190 186 196 219 232 223 222 252 203 167 166 225 205 215 240 250 267 271 258 222 212 212 216 220 220 220 222 224 226 227 228
243 241 241 239 243 241 236 234 227 227 226 226 234 227 229 221 198 192 188 184 182 186 192 181 180 186 216 196 191 187 188 186 180 180 181 174 171 172 165 163 160 151 142 139 159 167 159 150 158 180 184 181 188 192 202 190 145 176 194 195 200 230 240 233 255 229 183 180 220 209 207 238 249 260 259 256 230 217 221 223 227 228 226 226 226 228 229 230
244 242 240 237 239 240 239 234 227 227 223 227 232 222 229 221 196 181 178 179 185 190 190 180 183 188 152 172 177 177 180 183 181 178 180 177 170 166 159 156 154 150 152 148 158 169 163 161 190 197 190 186 190 186 176 102 134 155 158 171 204 241 255 257 272 268 212 202 230 217 205 229 242 251 252 243 218 215 224 227 233 233 230 229 228 230 232 233
246 244 242 238 237 238 241 235 229 227 222 227 226 216 217 217 213 164 167 179 193 194 194 187 186 189 173 168 176 176 169 173 182 179 180 178 168 160 156 155 152 157 173 146 134 160 173 188 199 191 174 171 171 154 135 112 116 134 136 147 233 246 261 277 282 297 254 211 249 235 213 230 240 251 255 222 189 213 221 220 228 232 231 230 229 232 235 238
246 246 244 241 237 235 240 237 230 226 225 229 226 220 215 217 223 178 170 177 193 193 197 187 183 184 177 175 183 180 166 161 176 178 178 176 170 165 162 163 161 160 162 146 129 148 187 209 188 153 135 136 143 147 152 153 124 127 135 122 234 243 268 276 277 291 222 206 261 250 219 240 247 253 257 218 206 229 229 227 231 232 230 231 230 233 236 238
247 246 244 243 238 234 239 238 232 228 229 230 226 224 218 220 233 187 173 159 184 193 193 179 175 164 158 163 175 174 163 159 169 174 176 176 175 171 163 165 166 155 162 167 159 163 188 208 169 147 138 138 148 160 160 178 174 162 159 152 219 265 294 251 283 315 269 231 271 212 221 255 254 258 262 234 229 241 242 241 243 238 234 236 235 235 237 238
247 244 243 244 240 235 237 240 236 230 230 231 228 225 215 219 238 199 171 117 160 192 181 175 173 164 160 162 170 169 164 168 170 172 176 175 171 169 165 164 159 157 175 174 166 170 178 178 160 147 147 153 159 169 169 190 204 193 192 181 192 252 250 250 318 329 302 304 76 106 290 277 237 249 263 241 231 242 246 245 248 245 239 241 242 240 241 242
246 243 241 241 241 237 237 241 238 229 229 232 228 224 214 219 229 193 172 77 123 173 176 175 171 167 166 165 169 168 162 169 177 176 177 175 168 161 164 169 166 169 176 162 153 176 201 167 159 148 158 167 168 183 183 183 194 216 208 186 195 232 256 280 317 336 324 285 255 188 263 266 255 248 252 243 223 239 242 238 242 245 242 240 241 242 243 244
244 242 240 240 240 237 236 239 235 228 228 231 226 221 214 218 219 183 167 292 198 169 171 171 168 170 169 164 165 164 155 166 183 178 175 176 171 162 157 169 179 172 163 150 143 189 188 160 159 154 164 172 183 196 189 175 180 221 187 169 208 235 257 282 300 306 253 262 279 106 223 259 303 259 246 243 234 244 243 237 241 244 244 241 241 243 243 244
244 242 241 242 239 235 232 232 230 225 224 226 223 217 213 218 221 195 170 267 212 164 164 168 170 173 170 164 163 162 153 153 167 176 174 173 171 165 162 167 171 163 153 148 177 195 146 156 167 168 164 173 195 197 188 174 176 205 155 158 197 222 240 252 258 236 237 282 304 327 195 253 275 246 257 267 248 261 256 249 248 245 244 243 243 244 244 244
244 242 242 243 240 234 230 228 226 219 219 221 216 213 212 208 205 193 189 247 181 137 153 160 165 169 165 164 164 155 140 150 151 177 176 170 166 164 167 171 157 151 158 165 190 172 141 163 175 173 172 187 193 181 172 174 183 200 156 154 178 193 219 226 208 224 257 347 278 265 168 222 262 264 300 349 230 259 257 247 245 243 242 242 243 244 244 246
244 241 241 244 241 233 229 227 222 218 219 217 212 213 210 198 185 176 214 242 146 120 154 152 157 161 156 161 165 140 138 151 145 165 171 169 168 163 167 175 156 142 169 180 189 178 167 181 178 172 181 192 187 177 168 176 191 170 150 134 130 143 179 187 173 196 219 263 243 238 200 223 262 273 277 293 234 243 253 252 241 240 241 241 242 243 245 247
243 240 240 241 238 228 224 224 222 221 218 212 213 213 205 195 185 191 218 195 113 148 151 149 157 154 151 159 162 140 142 144 130 144 159 169 170 164 151 166 158 134 167 189 195 209 114 176 178 178 194 189 181 180 172 177 175 132 128 128 120 108 76 107 143 133 180 251 241 228 224 238 265 263 232 224 226 211 225 252 252 245 244 242 242 245 247 248
243 240 238 236 234 224 215 214 219 219 212 209 210 202 192 190 200 227 206 148 102 182 148 147 158 152 154 160 151 147 143 116 134 142 148 165 170 165 144 161 166 134 155 190 198 225 45 141 176 190 191 170 151 172 177 178 170 135 130 147 148 210 155 142 329 130 211 246 246 212 202 224 243 252 234 235 241 217 210 234 247 243 242 243 244 247 251 252
243 238 235 233 229 219 210 211 214 210 207 206 196 183 177 186 224 214 178 136 156 189 158 149 156 154 158 162 156 153 139 126 148 149 152 161 170 182 169 171 170 154 175 186 176 105 92 185 233 180 182 168 152 165 180 185 178 156 161 166 164 187 178 202 225 205 225 251 264 169 145 225 240 248 260 263 265 249 226 226 238 248 254 262 264 260 260 258
241 235 232 229 220 212 212 214 208 201 201 197 184 173 171 218 215 163 119 170 176 167 161 157 158 158 159 162 159 149 135 140 157 155 156 157 158 183 197 188 170 167 177 167 157 160 179 276 244 165 189 181 166 166 177 192 191 178 177 177 177 173 178 202 212 229 250 257 264 129 126 254 265 258 246 248 253 252 245 239 243 254 264 272 275 266 262 265
236 231 229 222 213 210 212 209 200 195 192 184 177 173 187 206 206 113 141 204 151 139 157 157 156 158 161 161 158 152 137 147 162 158 155 155 157 181 201 205 188 173 121 149 171 176 177 231 206 174 184 175 171 180 173 154 173 195 184 157 181 186 182 193 198 209 232 254 270 248 184 212 203 235 237 239 254 257 255 253 253 259 263 267 270 266 261 263
225 221 216 209 205 206 205 198 193 191 183 176 176 193 196 192 188 144 158 172 147 142 146 153 154 157 162 156 157 160 141 149 162 157 158 164 172 179 182 196 192 170 143 165 179 173 183 220 227 139 129 158 170 184 159 141 171 207 159 148 204 195 159 143 194 186 172 231 254 216 229 217 202 275 276 262 268 268 263 261 255 256 261 262 264 265 263 263
205 203 200 195 195 197 195 190 188 185 179 173 183 213 196 183 173 168 155 157 160 145 141 156 162 158 156 149 161 161 116 139 156 154 167 174 178 184 185 193 187 178 173 168 159 165 177 205 321 61 83 167 175 169 168 173 177 151 163 198 220 173 150 142 237 106 99 217 242 196 248 294 308 284 287 275 270 274 267 263 254 253 258 256 256 261 262 264
191 189 186 187 189 189 187 185 183 180 177 177 204 201 190 179 156 145 157 162 157 150 149 160 176 165 151 143 162 155 127 135 158 159 165 173 186 192 190 198 194 191 190 172 165 193 154 126 325 123 121 207 178 147 180 196 162 144 192 198 134 81 159 131 190 283 148 228 264 210 231 274 274 262 294 305 271 267 257 247 251 254 252 248 250 253 258 261
183 178 178 183 186 183 182 182 178 175 175 181 206 198 190 181 154 142 162 161 155 160 160 160 172 173 161 154 156 158 148 148 167 169 164 174 200 191 184 194 199 196 195 178 165 215 146 115 329 198 146 172 133 140 189 231 182 174 193 177 146 182 212 163 179 209 199 226 269 295 247 247 215 220 278 270 246 254 259 247 242 252 244 240 246 248 251 256
173 170 174 181 182 179 178 178 174 174 178 189 196 198 186 172 159 158 162 159 160 168 164 161 162 158 172 164 154 161 163 161 166 167 169 182 203 190 185 190 194 191 193 185 168 195 164 127 141 227 150 139 117 179 196 201 170 62 131 172 177 188 192 186 181 179 185 215 244 292 282 245 214 200 216 245 246 244 253 254 232 236 238 237 244 250 251 250
166 165 170 177 179 176 173 173 173 175 188 192 188 193 172 163 166 167 164 161 168 182 169 159 155 152 166 167 160 165 165 162 167 170 177 180 178 190 188 186 178 180 184 183 164 171 159 114 135 130 99 161 183 214 197 181 167 150 164 185 199 185 145 177 198 153 152 190 201 253 264 251 227 192 194 225 251 241 223 232 240 240 247 253 257 262 259 247
162 162 166 173 176 172 167 168 174 179 188 192 193 190 171 164 160 168 169 166 169 203 184 160 160 160 159 161 167 170 159 156 170 176 174 178 179 195 191 186 171 161 166 172 197 185 170 145 141 128 174 184 214 262 190 172 180 181 188 196 191 177 142 184 224 218 109 194 187 188 258 261 225 188 193 205 240 249 217 209 240 253 259 271 272 262 252 238
161 155 163 170 172 168 164 163 175 177 189 193 187 177 169 160 159 169 173 170 167 172 168 160 164 160 156 164 167 168 163 158 174 181 179 188 191 200 191 181 166 158 166 171 188 175 98 104 123 134 199 197 260 296 159 145 155 162 211 204 174 181 171 179 219 227 175 244 167 138 269 272 195 181 195 196 220 241 227 204 229 254 260 270 263 222 214 220
159 137 157 168 170 166 163 164 178 177 196 174 162 172 177 163 162 168 171 174 169 154 153 164 167 160 160 170 161 161 162 159 176 180 164 182 193 192 173 166 156 157 171 169 159 162 132 116 112 71 321 315 320 329 22 32 62 188 235 175 159 196 171 153 193 181 193 226 161 209 264 265 193 187 200 207 219 235 239 215 222 251 258 246 215 198 201 211
142 134 149 164 170 167 164 177 176 173 168 155 158 176 179 168 166 166 167 177 177 154 153 162 170 167 163 153 159 167 166 160 183 184 147 150 184 168 162 161 158 164 181 184 173 170 170 141 125 124 92 22 339 332 306 245 196 203 203 146 161 143 103 114 170 114 224 211 170 212 243 228 265 283 237 247 244 248 257 249 242 257 249 224 210 205 201 200
131 134 143 159 168 170 174 178 169 167 163 158 158 168 166 165 174 171 166 172 180 166 156 163 171 165 151 148 158 177 177 161 173 176 139 109 138 157 161 163 166 174 183 178 160 149 153 159 151 155 161 179 192 205 217 200 175 182 134 133 156 132 136 179 168 173 238 208 173 215 239 241 307 321 191 254 265 261 259 255 252 245 225 214 214 213 199 178
136 148 136 156 168 175 185 178 166 167 164 156 154 164 159 152 173 178 172 170 180 175 160 160 164 156 151 157 157 179 194 81 106 155 146 139 147 191 168 167 172 175 169 158 151 143 125 168 168 176 192 199 195 189 140 119 138 189 177 159 172 179 181 175 164 215 224 185 201 223 207 108 293 210 193 232 231 236 255 253 243 229 215 213 224 221 201 166
145 167 145 154 165 175 190 183 171 173 168 158 153 158 157 152 158 186 189 187 178 167 154 149 158 157 162 164 160 178 187 128 84 147 152 144 114 95 164 170 173 170 158 154 158 148 91 197 189 195 207 205 174 160 146 139 168 189 180 178 187 188 179 176 208 218 174 140 232 219 151 171 241 230 217 224 216 228 252 248 236 222 208 213 227 219 208 192
143 155 166 166 159 169 190 183 175 178 172 163 155 152 158 160 161 176 191 197 171 162 150 146 164 167 166 166 164 172 177 173 148 158 157 148 116 111 157 179 181 171 162 163 171 158 145 206 201 198 208 206 130 159 169 162 176 179 179 189 191 186 186 202 220 217 165 199 234 169 149 197 223 225 225 223 214 219 234 240 231 214 208 214 213 203 204 246
129 119 162 170 163 170 175 169 171 184 182 175 164 161 163 163 166 173 174 169 175 176 163 158 170 172 169 169 167 164 171 178 179 177 171 166 159 149 158 183 196 181 171 170 181 176 177 198 193 187 198 202 125 179 178 162 156 169 187 193 190 194 204 214 223 220 208 231 236 140 161 216 213 211 225 230 226 223 237 243 221 206 211 208 196 200 213 277
161 149 155 161 146 167 171 168 171 182 188 186 176 170 169 166 168 174 174 172 175 178 170 166 173 174 172 174 173 173 181 184 185 184 173 164 167 168 170 175 173 179 180 172 178 197 193 187 162 158 181 206 87 175 179 162 160 177 196 199 198 206 215 220 224 218 224 239 241 234 266 262 238 230 240 240 228 217 232 234 219 208 208 200 206 233 248 258
183 168 164 163 153 167 172 170 170 177 188 194 186 170 169 172 171 170 179 189 183 177 175 174 173 174 175 178 180 182 184 185 186 182 172 168 172 171 170 169 151 154 170 171 158 118 139 161 111 129 171 225 174 134 132 109 116 177 208 208 207 212 218 222 220 212 223 232 228 243 260 249 199 229 243 224 192 215 241 245 242 238 236 243 254 258 254 253
176 169 167 167 163 167 170 168 173 179 182 187 185 174 173 176 174 168 173 201 197 188 184 176 168 168 173 182 190 191 186 185 186 180 176 175 172 160 149 149 155 159 158 147 135 109 120 129 117 144 174 214 111 126 124 97 91 229 228 213 211 216 219 222 225 222 222 215 206 228 239 189 162 199 219 216 208 232 247 250 252 257 256 255 255 252 254 261